GFSMW_500_spd_057.txt.gz
Wind_Speed
11 10 12 10 10 12 12 16 19 21 23 26 26 22 19 23 21 24 24 26 29 30 30 27 26 23 24 27 26 28 28 27 27 30 28 31 24 22 27 26 28 30 31
14 11 13 13 11 10 12 19 11 23 26 28 24 24 28 23 30 25 24 29 24 28 28 28 27 24 24 27 27 26 26 27 24 21 21 22 25 27 26 29 30 32 34
14 11 10 11 11 9 10 13 14 9 25 23 30 25 27 26 29 27 26 27 31 30 28 28 30 27 26 27 27 26 26 24 23 24 26 28 28 29 31 30 30 33 36
12 10 8 7 6 8 9 8 7 8 3 14 26 22 27 25 26 29 29 34 25 25 32 29 31 27 28 28 28 29 25 26 27 30 31 31 31 32 30 31 32 37 36
10 9 7 8 7 6 6 7 6 1 4 4 5 9 15 27 29 35 32 34 29 24 29 33 30 30 29 31 31 27 26 26 28 30 30 29 27 30 33 34 36 38 39
11 10 7 5 4 5 7 7 5 5 5 5 8 8 9 6 17 25 23 23 24 19 19 23 24 26 25 26 28 28 30 33 34 31 29 30 29 32 34 36 39 41 40
12 12 10 7 4 5 7 7 7 7 6 7 9 8 8 8 10 14 16 16 17 19 19 20 21 23 26 31 33 32 33 36 35 30 30 32 35 35 33 40 42 42 41
8 11 13 12 9 11 11 11 12 12 9 7 8 10 9 10 12 13 15 15 17 19 19 18 20 26 31 34 35 35 33 33 32 32 34 33 37 34 42 42 41 43 45
15 15 17 16 16 14 13 14 13 12 11 13 12 10 8 9 11 14 17 19 19 21 20 21 22 23 27 31 34 35 35 35 32 34 37 41 37 40 42 46 44 44 43
18 17 17 16 16 15 15 12 13 13 13 11 14 14 15 15 15 15 17 18 18 21 23 23 23 25 25 25 28 31 33 35 32 35 35 39 41 46 46 46 45 44 45
20 17 17 15 15 15 13 12 13 16 16 16 16 17 16 21 20 19 16 15 22 24 25 28 30 29 29 30 32 33 36 38 37 43 44 44 45 44 47 47 46 46 45
26 21 23 20 18 19 15 13 14 13 14 18 19 21 22 23 23 19 24 24 21 21 26 33 31 27 32 33 39 46 47 46 42 44 48 48 46 46 48 46 48 47 47
30 29 25 23 23 24 20 20 19 20 21 20 20 18 19 20 23 28 31 27 27 22 30 26 28 27 29 31 36 31 40 39 39 45 47 46 44 44 44 46 49 50 52
29 30 27 25 26 27 28 25 23 21 22 25 27 24 22 22 24 27 28 31 31 32 34 29 29 36 33 34 34 32 34 37 35 41 36 44 46 49 50 51 53 55 55
30 31 32 32 31 33 33 33 30 31 30 30 28 22 23 22 23 25 29 34 37 36 34 32 32 39 36 35 41 39 40 37 38 43 39 47 50 53 54 54 55 56 57
33 34 31 32 34 33 34 33 32 32 33 31 28 28 26 24 25 28 30 32 34 36 37 37 38 42 40 38 43 42 39 40 37 39 46 48 50 52 54 55 56 58 60
30 29 30 29 30 32 32 30 31 33 34 33 33 31 32 32 33 35 37 40 38 37 38 40 42 41 42 43 43 45 41 40 43 42 46 50 52 54 56 58 59 61 63
34 28 32 34 30 29 27 26 30 28 27 30 30 34 38 41 42 41 42 40 39 39 39 40 40 40 42 44 48 47 46 46 47 48 50 53 57 60 61 62 63 63 64
39 35 31 31 28 29 26 26 26 27 28 26 32 35 38 40 44 47 44 42 37 37 37 38 40 40 40 41 44 47 49 49 51 52 54 58 60 63 65 65 64 66 66
45 44 37 35 33 31 30 30 29 33 34 33 32 33 35 37 36 37 37 38 36 35 36 37 39 40 42 42 44 48 50 52 53 54 56 52 69 67 66 65 67 68 69
43 46 45 40 38 35 37 36 34 36 39 36 35 37 39 42 40 37 37 40 40 40 40 40 40 41 42 46 49 50 52 54 56 58 59 67 69 67 67 68 70 71 72
35 38 41 44 45 40 38 38 40 40 43 41 40 44 42 41 42 40 43 44 43 44 44 46 46 46 47 49 51 53 54 58 59 60 64 65 67 68 71 72 73 73 75
36 37 41 43 41 43 45 41 41 43 44 43 44 45 46 43 41 45 47 46 44 46 47 49 51 52 53 53 54 54 50 52 65 66 67 68 70 72 72 75 75 78 83
37 35 37 38 41 44 43 38 37 38 40 41 40 43 48 43 48 50 51 51 49 50 48 49 51 52 55 56 53 61 62 65 67 69 69 71 73 73 76 81 82 83 84
49 47 42 41 41 42 42 44 41 37 40 42 42 42 49 51 50 51 53 51 46 49 51 52 53 54 61 60 62 64 65 67 70 71 72 75 78 80 85 86 85 89 92
50 43 47 40 43 40 42 41 41 45 41 48 49 49 52 56 57 59 59 58 54 55 53 54 55 59 62 66 68 70 70 71 74 75 77 79 81 85 88 89 93 91 91

GFSMW_500_spd_060.txt.gz
Wind_Speed
16 13 14 12 11 11 9 10 16 21 21 22 20 20 21 30 34 34 29 30 27 33 37 36 37 31 26 30 28 28 27 27 28 28 31 35 37 30 33 33 32 27 29
18 12 12 12 10 10 10 11 20 18 25 28 26 23 22 28 31 30 32 32 31 32 35 33 30 26 30 28 25 25 27 26 29 31 34 33 34 36 32 32 28 30 31
19 11 12 11 10 8 9 11 15 5 17 28 27 25 23 23 28 22 26 26 24 24 26 30 31 32 31 32 30 27 27 31 28 29 27 26 27 28 31 27 30 32 32
18 12 10 11 8 7 8 8 9 10 3 18 19 22 21 25 23 14 19 22 19 28 24 28 33 33 32 31 32 30 29 27 28 27 26 27 28 30 30 31 33 34 35
14 13 8 8 6 4 5 6 5 4 2 5 10 17 26 25 25 29 27 25 27 26 28 31 38 33 33 35 36 28 28 27 26 26 28 30 32 34 34 31 33 36 38
15 13 11 8 7 5 5 6 5 3 3 4 5 5 6 11 19 29 28 27 30 33 29 30 33 35 35 36 31 29 28 28 28 30 30 33 35 37 35 32 37 31 42
13 14 13 10 8 7 9 7 7 6 5 6 7 7 8 10 8 14 30 29 24 26 28 26 32 29 29 31 27 28 29 28 31 32 31 34 35 36 36 39 38 42 44
15 16 15 12 10 11 12 9 8 9 8 6 8 10 9 10 9 7 6 11 15 16 18 20 20 20 22 24 28 31 31 33 35 35 34 37 38 38 39 43 47 39 48
16 16 18 17 13 14 15 12 11 10 9 9 13 10 9 11 12 12 11 15 15 15 17 21 22 21 20 24 27 29 31 36 37 37 39 38 39 38 44 44 45 48 46
22 21 19 23 17 15 15 14 13 9 9 8 10 15 14 13 13 14 16 19 21 21 23 25 25 23 23 25 27 25 29 32 34 38 41 42 39 44 40 42 45 42 38
24 24 22 22 21 16 14 16 12 12 12 12 11 11 14 16 15 14 18 21 20 21 25 25 25 26 28 29 31 30 31 34 34 36 39 44 47 46 44 45 45 54 55
21 24 24 24 24 18 15 17 15 14 15 14 14 12 15 15 15 16 21 21 23 23 25 23 27 28 31 33 33 34 36 35 38 45 46 46 47 48 51 56 55 53 51
22 25 27 28 28 27 24 21 23 20 21 20 17 18 18 17 16 17 19 22 26 27 28 26 28 31 34 32 34 36 34 34 38 40 46 53 54 55 55 58 58 53 56
29 30 31 33 30 29 29 27 26 28 27 26 22 21 22 24 25 26 24 23 25 25 26 27 28 34 32 34 32 38 39 40 42 43 46 48 40 47 51 45 48 53 50
33 35 34 34 34 31 31 32 34 34 35 32 34 31 30 29 31 28 27 27 26 26 28 28 29 33 31 31 39 40 44 44 44 45 47 44 46 46 48 54 47 47 52
39 38 37 37 35 35 35 37 37 36 37 37 38 36 34 31 31 30 30 31 29 29 30 31 36 36 37 36 38 41 43 43 48 48 50 45 49 53 47 50 55 50 41
36 40 42 41 41 39 39 40 40 40 39 39 41 40 37 34 35 37 37 35 35 36 36 38 40 40 41 40 41 43 46 44 45 48 48 51 41 48 49 51 54 55 57
38 37 37 41 41 41 42 38 39 40 43 43 44 37 36 32 34 37 41 41 42 42 43 43 43 44 42 41 41 43 46 47 44 46 48 51 49 52 54 54 56 56 59
42 41 38 36 32 33 43 40 37 38 42 40 41 36 33 34 35 35 37 42 46 43 45 45 47 47 47 43 43 45 45 46 47 47 48 50 53 54 54 55 52 55 64
44 43 40 37 38 39 37 40 37 34 36 38 40 40 38 40 39 38 37 36 38 36 40 43 46 49 48 45 45 47 48 49 50 52 53 54 55 58 58 54 60 65 73
39 40 45 44 42 39 42 42 42 39 38 40 41 42 43 44 44 43 43 43 40 43 48 48 47 49 51 50 51 51 51 52 54 56 57 58 59 60 64 65 64 68 73
40 38 38 43 46 42 44 46 46 47 44 43 45 45 44 49 49 49 49 48 47 45 49 49 46 48 50 51 52 54 55 55 56 57 59 59 57 59 72 61 68 70 75
50 44 41 42 46 46 43 46 44 48 49 48 54 52 48 51 54 56 55 49 51 48 54 55 53 53 52 53 56 55 53 54 57 59 57 62 54 62 74 76 82 86 83
51 45 43 44 46 46 47 47 46 46 48 52 53 49 47 51 52 52 51 56 65 66 53 52 54 52 50 52 51 54 55 57 58 59 60 54 67 74 75 79 80 79 80
38 47 42 48 48 44 46 48 47 48 49 51 50 48 49 50 51 53 54 55 59 66 61 56 59 59 57 59 57 55 57 56 58 61 66 75 76 75 75 79 83 84 86
38 38 40 47 49 54 47 48 50 48 50 51 49 52 48 50 54 64 63 58 54 58 59 58 61 67 65 67 67 64 63 63 67 73 75 75 76 81 83 82 85 88 89

GFSMW_500_spd_063.txt.gz
Wind_Speed
12 10 13 11 11 13 13 13 14 15 20 21 21 18 18 16 24 29 35 41 39 30 28 34 40 47 52 46 42 38 36 33 35 35 31 29 30 33 34 33 33 33 32
11 9 11 11 11 12 12 12 16 21 23 24 26 25 20 20 21 25 27 32 35 31 28 26 21 39 43 36 37 31 31 32 31 31 30 31 33 33 34 34 32 29 28
12 8 8 11 9 9 11 12 14 20 15 15 25 24 19 17 21 27 29 28 23 23 20 17 18 24 24 27 26 27 29 28 28 29 30 34 32 35 33 33 31 31 29
12 9 7 9 5 7 10 10 12 13 14 2 13 16 17 17 22 17 19 21 21 22 21 15 18 25 28 28 28 29 30 31 28 30 30 33 31 20 23 31 32 30 32
10 12 8 8 5 4 6 10 9 9 8 6 7 12 15 21 24 19 16 20 15 16 15 19 26 21 24 32 35 31 29 30 23 20 26 24 26 26 23 24 26 29 32
10 12 11 10 8 4 5 8 8 7 6 5 4 5 8 12 18 21 18 19 21 23 19 23 26 25 24 29 33 29 32 34 29 22 22 21 23 26 29 30 31 32 34
11 12 12 11 11 7 7 7 7 7 8 6 8 7 7 8 6 8 11 25 29 29 26 26 28 30 28 29 33 36 36 32 24 19 21 23 27 30 34 35 35 36 38
14 14 16 13 13 11 11 10 8 7 8 7 8 8 10 10 8 7 8 8 23 25 24 22 24 17 19 27 29 28 28 25 25 22 24 27 29 33 36 37 40 42 42
16 15 18 15 14 15 15 12 11 10 8 8 8 11 10 10 10 11 10 8 8 9 9 12 16 18 17 19 21 21 22 25 26 28 30 32 34 37 38 39 39 43 44
18 18 19 19 18 17 16 15 15 12 9 9 9 9 11 15 13 12 11 12 13 15 17 19 18 18 20 20 23 20 21 24 25 29 32 35 36 39 41 43 45 44 47
22 21 23 24 23 19 19 18 16 15 15 12 11 11 11 13 17 15 15 17 18 18 20 22 22 23 26 27 25 24 25 28 28 30 32 33 34 38 41 42 46 49 53
23 23 25 25 26 25 23 20 17 18 19 20 17 14 15 15 13 19 22 22 21 22 21 20 20 21 23 28 29 30 30 30 32 34 37 37 39 44 46 49 53 50 59
25 24 27 28 28 29 27 25 22 21 25 23 23 20 18 17 16 17 18 19 21 24 25 27 28 28 30 29 29 31 32 37 39 40 41 41 41 43 46 49 49 50 52
27 28 29 30 31 31 30 28 29 30 28 25 26 25 24 21 24 25 25 25 24 23 25 27 27 26 28 29 28 35 30 37 38 42 44 45 47 46 48 50 51 48 51
29 32 33 33 35 35 34 34 32 33 32 31 30 30 31 32 33 31 33 32 32 31 32 31 29 27 28 26 28 32 33 34 40 43 44 44 45 46 50 52 52 57 54
36 35 36 37 37 37 37 37 36 36 37 36 33 33 33 34 36 37 33 36 35 37 37 37 36 34 32 31 32 36 39 40 42 44 47 49 46 46 54 53 53 51 56
32 35 41 43 43 42 41 42 42 42 42 39 39 37 36 37 38 39 39 38 38 40 40 41 41 42 43 43 41 41 45 46 46 45 45 46 48 47 52 52 51 52 51
33 36 39 41 47 47 48 48 47 48 46 44 44 44 42 42 43 42 40 39 38 39 40 41 42 45 47 48 49 50 50 52 51 52 50 48 48 48 47 57 56 55 55
36 36 36 36 38 43 47 51 53 50 50 48 47 47 46 47 47 42 42 40 38 36 36 41 44 47 47 47 48 50 52 51 52 54 54 53 53 54 54 56 57 59 59
37 38 40 39 39 38 39 45 42 38 55 50 50 50 48 50 50 46 46 46 45 43 39 38 39 43 44 45 48 51 54 55 55 56 57 57 57 58 58 60 61 61 62
42 41 41 41 39 38 40 44 45 45 45 44 51 53 50 49 50 51 51 50 51 52 53 48 45 48 46 50 52 53 51 56 59 61 61 62 63 63 64 64 65 66 59
42 45 48 49 44 41 38 40 46 48 48 47 49 52 52 51 54 56 54 54 54 58 61 59 57 57 52 54 55 55 56 56 57 59 59 61 62 64 64 65 68 69 73
39 42 43 43 48 53 47 44 44 45 49 51 52 56 55 56 58 58 58 59 62 65 70 64 64 64 72 63 60 56 61 57 54 55 61 60 60 63 65 67 66 65 74
40 43 46 47 45 46 50 45 45 46 51 54 57 57 62 62 64 64 67 70 72 71 71 68 69 66 66 72 75 73 71 61 57 59 61 63 66 63 63 65 73 87 81
39 39 41 44 46 46 46 43 45 49 54 55 56 55 56 57 60 64 66 65 65 64 64 65 68 71 70 69 71 77 66 58 59 63 70 74 74 76 73 72 74 74 71
38 44 44 37 37 41 41 44 39 35 55 55 57 53 52 55 59 62 63 64 63 63 63 68 68 73 76 78 74 76 72 72 72 69 67 68 69 73 74 75 78 80 83

GFSMW_500_spd_069.txt.gz
Wind_Speed
11 13 15 14 14 8 10 7 8 11 14 14 18 20 17 17 15 17 20 25 28 34 37 37 37 33 37 29 32 34 38 42 49 54 43 37 33 27 24 25 23 21 22
12 12 14 14 14 11 7 8 7 8 12 17 19 18 17 17 14 15 15 15 22 20 28 34 31 32 31 31 30 31 36 40 39 54 46 39 37 31 24 22 21 22 24
9 6 13 12 13 12 7 6 8 9 13 16 17 13 8 14 13 9 8 9 15 19 20 26 27 29 32 36 35 35 36 34 42 51 45 37 32 27 22 22 24 25 26
18 4 14 14 12 13 8 5 9 12 13 11 11 4 3 7 6 6 8 7 10 16 24 21 27 29 30 35 38 37 36 30 21 35 32 24 23 25 24 25 26 28 21
20 12 16 15 13 12 9 8 10 13 11 9 8 5 1 5 6 9 7 10 6 18 22 23 23 28 21 22 22 18 19 17 19 20 20 21 23 25 26 27 26 26 19
19 8 14 15 15 13 10 10 11 12 9 8 6 6 5 3 2 6 7 7 6 2 7 10 22 17 20 17 12 14 15 16 20 23 22 23 24 26 24 26 22 19 21
16 10 12 17 17 16 15 12 10 12 11 10 7 5 5 3 3 3 2 4 12 13 13 13 16 17 19 13 14 13 14 20 23 23 24 25 26 23 26 28 22 19 21
20 13 14 19 17 18 17 13 12 11 12 10 9 5 5 6 3 2 2 4 6 14 21 22 19 19 19 19 20 16 20 21 24 25 25 25 29 27 25 27 27 26 26
20 16 18 19 19 19 18 14 14 12 11 11 10 6 3 3 7 6 4 5 7 8 9 21 16 18 20 19 23 19 15 22 26 30 31 32 30 29 27 28 31 32 33
22 21 17 20 22 22 20 17 16 14 12 12 11 8 6 6 6 6 9 8 7 5 5 8 9 9 11 14 15 16 17 16 14 16 19 22 27 31 33 34 36 38 40
24 22 17 22 23 24 23 22 17 16 14 13 11 10 10 10 11 9 8 9 11 10 8 9 12 12 13 15 15 17 19 19 21 23 26 27 29 31 33 35 35 35 36
23 21 21 20 24 26 25 26 22 19 18 16 15 13 12 12 13 12 10 8 9 9 12 15 16 18 19 19 18 18 17 20 22 25 26 26 29 31 32 33 35 36 37
25 26 27 26 25 28 31 27 28 27 22 20 19 18 17 15 16 17 15 14 14 13 12 13 14 16 21 22 23 23 24 24 23 26 30 30 31 30 34 37 38 38 39
32 26 25 26 28 31 32 31 31 31 27 26 23 23 23 24 21 20 19 20 20 19 18 19 18 19 21 23 24 27 28 29 29 32 33 33 34 35 35 35 38 41 44
34 31 27 29 29 26 27 29 29 30 29 26 25 26 26 27 27 26 25 25 24 24 27 28 26 25 25 25 28 30 31 32 33 35 35 36 36 36 36 38 39 43 47
38 34 31 32 34 34 32 29 30 27 28 28 27 27 28 29 29 32 32 30 28 27 28 30 32 32 31 29 31 34 35 36 37 37 38 40 42 43 44 43 44 47 51
41 38 39 41 39 37 38 37 37 35 35 32 33 34 34 35 33 35 36 37 36 36 34 34 36 36 35 32 34 37 39 39 41 42 44 47 48 48 49 50 52 51 51
37 35 36 41 41 42 40 40 41 42 41 39 39 39 41 42 42 42 41 40 43 44 42 40 42 42 39 39 39 37 39 40 41 45 48 49 48 48 49 49 48 48 47
30 31 33 36 39 45 46 47 47 48 47 47 46 44 45 47 47 47 48 47 46 47 47 47 47 45 43 43 42 42 42 44 47 48 50 51 51 51 50 51 54 56 55
27 29 30 33 34 33 32 32 37 41 43 44 45 46 45 44 44 44 47 46 47 48 49 51 50 50 51 50 52 50 49 51 53 56 58 60 60 60 58 58 59 63 65
27 30 32 34 34 35 36 39 41 43 45 48 50 51 52 52 50 49 48 46 49 50 55 56 55 55 55 60 58 57 55 58 60 61 63 65 64 65 66 69 70 71 66
34 35 35 35 36 37 39 40 40 42 43 45 47 50 52 54 56 55 55 54 52 54 55 59 62 62 60 60 61 63 63 63 65 65 66 69 70 69 75 74 72 72 72
32 32 32 33 34 34 36 38 40 43 45 48 49 51 53 55 56 57 59 59 61 61 60 61 64 66 67 65 66 64 67 66 69 75 77 76 79 77 77 77 66 66 79
26 27 28 29 30 32 33 35 38 40 42 44 47 50 52 54 57 59 62 64 65 66 67 68 66 71 68 69 67 78 63 76 73 74 74 75 76 88 76 78 85 84 79
28 29 31 32 32 33 35 36 38 39 40 43 47 49 50 51 54 56 60 66 66 68 68 70 69 66 65 82 71 75 80 84 69 73 77 74 70 71 79 78 73 66 73
30 32 34 35 36 37 39 41 42 43 44 45 47 48 50 50 51 53 57 59 62 51 57 59 68 71 84 75 66 77 73 62 63 77 77 69 77 75 66 69 75 75 71

GFSMW_500_spd_072.txt.gz
Wind_Speed
13 8 21 15 15 14 14 13 11 10 9 11 11 13 15 15 13 19 26 25 36 34 33 30 29 34 30 26 31 32 28 32 33 36 37 41 42 38 33 31 30 29 27
12 6 17 12 15 14 14 14 10 8 10 13 16 15 12 16 19 20 22 19 19 27 31 36 35 35 35 32 28 34 32 28 32 28 41 39 40 45 39 36 34 31 28
15 6 12 12 15 14 13 12 9 8 12 17 15 13 6 9 19 19 19 19 20 20 22 27 34 38 37 35 31 34 29 27 28 31 29 35 35 43 46 37 36 29 26
15 8 10 12 14 15 12 11 9 9 14 12 12 10 5 10 16 15 12 12 13 19 24 22 29 36 33 30 30 31 31 28 30 34 34 27 22 33 33 31 29 28 28
18 9 7 15 14 15 13 12 9 9 11 9 8 7 5 4 10 11 13 12 14 21 25 28 28 28 29 27 26 29 30 33 36 36 30 26 22 27 27 26 28 28 31
18 12 11 17 17 17 15 13 11 9 7 9 6 6 4 2 4 8 11 12 13 18 25 25 29 25 26 27 27 28 26 25 28 30 29 23 25 25 26 27 27 26 30
22 15 14 16 20 20 17 16 14 12 8 7 6 4 2 3 2 2 3 7 15 11 15 16 23 25 27 27 24 24 20 23 24 22 22 23 25 26 26 25 25 26 29
18 15 10 18 22 21 18 18 17 16 12 8 5 5 3 3 3 5 5 6 8 12 16 18 19 24 23 24 24 23 25 27 29 29 28 29 31 28 26 24 26 26 29
15 14 12 17 21 19 19 19 18 18 15 10 7 6 4 5 4 4 3 4 6 7 8 18 19 18 19 21 23 24 26 24 25 25 26 29 31 28 25 26 29 30 29
25 20 17 16 20 22 23 21 21 19 17 14 10 9 7 6 5 4 4 4 5 4 6 7 17 22 25 26 27 24 24 22 19 24 31 33 31 29 32 35 36 35 37
17 14 13 15 19 23 25 24 23 22 19 17 13 11 11 11 10 9 8 9 7 6 6 6 11 14 14 14 15 16 19 20 22 23 24 22 25 26 27 32 37 41 43
21 19 19 21 21 23 26 26 26 25 24 20 17 16 16 14 11 10 9 9 9 7 7 11 13 13 16 18 18 19 21 24 24 26 28 27 30 32 34 36 37 38 37
23 19 19 18 18 26 28 29 29 29 30 28 21 20 21 20 18 14 13 13 13 13 14 14 14 15 17 19 20 21 23 23 24 26 27 28 32 32 34 36 37 38 39
28 23 20 21 22 24 30 33 31 31 31 31 28 26 24 25 25 22 20 19 17 17 19 21 21 21 21 21 22 24 26 29 31 32 31 31 34 33 35 38 41 42 44
34 27 23 25 23 22 25 31 34 34 32 27 27 29 28 28 27 26 25 25 24 24 24 25 27 29 29 28 28 31 33 34 34 35 35 35 37 39 40 42 40 41 44
35 37 30 30 30 27 27 28 25 25 26 27 28 27 28 30 31 31 31 29 28 28 28 28 29 29 29 30 32 34 35 37 38 38 40 40 41 41 42 43 45 49 52
39 31 30 33 35 34 32 32 37 39 37 33 31 31 30 32 34 34 34 33 34 34 34 33 34 33 33 34 37 37 38 37 38 38 41 44 44 43 47 49 54 57 57
45 45 39 36 36 40 41 43 43 42 42 41 39 38 38 37 38 39 40 40 40 40 41 41 41 42 40 42 42 41 42 42 41 41 43 44 45 45 48 50 54 53 52
32 33 34 34 37 41 44 44 44 49 47 45 44 44 46 44 42 44 46 46 47 46 46 49 49 50 50 48 48 46 45 48 49 49 48 50 51 51 52 54 56 57 58
34 31 30 32 35 37 40 38 45 51 51 52 51 52 54 54 51 48 46 46 46 48 49 52 53 55 53 53 53 52 53 52 56 56 56 61 59 58 59 61 63 65 65
29 31 36 38 37 38 39 39 39 40 39 39 42 45 48 50 51 51 50 50 51 52 53 54 55 56 57 58 60 60 60 62 60 64 64 69 68 65 65 67 69 69 71
27 32 31 33 35 37 39 40 43 45 46 47 47 50 52 54 55 56 57 57 57 58 58 60 60 59 62 61 61 58 59 65 69 71 69 70 69 71 70 71 73 75 76
31 35 37 38 40 42 42 43 44 45 45 45 46 47 50 53 55 58 59 62 63 63 65 65 65 65 67 61 63 69 68 69 71 72 74 74 69 69 74 75 73 73 77
38 40 42 45 45 43 42 40 38 39 40 42 44 46 48 50 51 54 56 58 60 63 66 67 68 70 70 69 65 66 77 68 72 67 75 73 68 78 81 86 75 78 85
47 45 43 39 37 37 37 37 38 39 40 41 43 45 46 48 50 52 54 55 57 58 60 63 66 69 71 71 64 68 74 65 65 79 78 80 81 75 79 78 79 80 86
39 35 34 35 36 37 39 39 39 41 43 46 48 50 52 53 55 57 58 59 60 60 58 57 59 58 63 69 66 67 69 78 87 75 72 72 78 71 72 69 69 71 63